Flag for U.S.A. Weather past 2 weeks in Alpena, Michigan, U.S.A.

Now
49 °F

Sunny.


Feels Like: 46 °F
Forecast: 38 / 49 °F
Wind: 6 mph from Northeast

Location: Alpena County Regional Airport

Current Time: Oct 22, 2014 at 5:58:01 PM

Latest Report: Oct 22, 2014 at 4:54 PM


Visibility: 10 mi

Pressure: 30.35 "Hg

Humidity: 59%

Dew point: 35 °F

Location of AlpenaLocation

Historic Weather in Alpena — Graph

°F

Alpena temperature yesterday

Maximum temperature yesterday: 46 °F (at 2:54 PM)
Minimum temperature yesterday: 34 °F (at 8:54 PM)
Average temperature yesterday: 42 °F

Past Weeks' High & Low Weather Summary

 TemperatureHumidityPressure
High64 °F (Oct 14, 2:54 AM)100% (Oct 7, 10:54 PM)30.42 "Hg (Oct 7, 10:54 PM)
Low28 °F (Oct 12, 5:54 AM)39% (Oct 12, 3:54 PM)29.39 "Hg (Oct 17, 2:54 PM)
Average47 °F83%29.92 "Hg
* Reported Oct 7 3:54 PM — Oct 22 3:54 PM, Alpena, Weather by CustomWeather, © 2014

Note: Actual official high and low records may vary slightly from our data, if they occured in-between our weather recording intervals... More about our weather records

Advertising

Alpena weather history for previous 24 hours

 ConditionsComfort  
Time TempWeatherWind HumidityBarometerVisibility
3:54 PM
Oct 22
52 °FSunny.6 mph47%30.35 "Hg10 mi
2:54 PM51 °FSunny.3 mph46%30.36 "Hg10 mi
1:54 PM50 °FSunny.3 mph54%30.38 "Hg10 mi
12:54 PM48 °FSunny.5 mph59%30.40 "Hg10 mi
11:54 AM44 °FPassing clouds.No wind65%30.42 "Hg10 mi
10:54 AM43 °FOvercast.8 mph71%30.42 "Hg10 mi
9:54 AM42 °FOvercast.7 mph73%30.42 "Hg10 mi
8:54 AM41 °FOvercast.7 mph76%30.42 "Hg10 mi
7:54 AM40 °FOvercast.5 mph80%30.39 "Hg10 mi
6:54 AM41 °FOvercast.6 mph76%30.37 "Hg10 mi
5:54 AM40 °FOvercast.5 mph80%30.36 "Hg10 mi
4:54 AM40 °FOvercast.3 mph77%30.35 "Hg10 mi
3:54 AM40 °FOvercast.6 mph77%30.34 "Hg10 mi
2:54 AM40 °FOvercast.5 mph77%30.33 "Hg10 mi
1:54 AM39 °FOvercast.6 mph79%30.32 "Hg10 mi
12:54 AM39 °FOvercast.8 mph73%30.33 "Hg10 mi
11:54 PM
Oct 21
38 °FOvercast.6 mph79%30.33 "Hg10 mi
10:54 PM35 °FOvercast.No wind88%30.32 "Hg10 mi
8:54 PM34 °FClear.3 mph82%30.29 "Hg10 mi
7:54 PM36 °FClear.3 mph79%30.27 "Hg10 mi
6:54 PM37 °FSunny.7 mph73%30.25 "Hg10 mi
5:54 PM43 °FSunny.14 mph60%30.23 "Hg10 mi
Weather by CustomWeather, © 2014

See weather overviewHow to use our weather pages